Time,TemperatureF,DewpointF,PressureIn,WindDirection,WindDirectionDegrees,WindSpeedMPH,WindSpeedGustMPH,Humidity,HourlyPrecipIn,Conditions,Clouds,dailyrainin,SolarRadiationWatts/m^2,SoftwareType,DateUTC
2013-08-31 00:00:00,63.0,58.0,-100.00,NNE,21,3.0,5.0,84,0.00,,,0.01,0.000000,,2013-08-31 07:00:00,
2013-08-31 00:42:00,63.0,58.0,-100.00,NNE,21,3.0,5.0,84,0.00,,,0.01,0.000000,,2013-08-31 07:42:00,
2013-08-31 00:52:00,63.0,58.0,-100.00,NNE,21,3.0,5.0,84,0.00,,,0.01,0.000000,,2013-08-31 07:52:00,
2013-08-31 01:00:00,63.0,56.0,-100.00,NNE,26,4.0,8.0,79,0.00,,,0.01,0.000000,,2013-08-31 08:00:00,
2013-08-31 01:22:00,63.0,56.0,-100.00,NNE,26,4.0,8.0,79,0.00,,,0.01,0.000000,,2013-08-31 08:22:00,
2013-08-31 01:32:00,63.0,56.0,-100.00,NNE,26,4.0,8.0,79,0.00,,,0.01,0.000000,,2013-08-31 08:32:00,
2013-08-31 01:42:00,63.0,56.0,-100.00,NNE,26,4.0,8.0,79,0.00,,,0.01,0.000000,,2013-08-31 08:42:00,
2013-08-31 01:52:00,63.0,56.0,-100.00,NNE,26,4.0,8.0,79,0.00,,,0.01,0.000000,,2013-08-31 08:52:00,
2013-08-31 02:00:00,60.0,54.0,-100.00,NNE,17,3.0,6.0,81,0.00,,,0.01,0.000000,,2013-08-31 09:00:00,
2013-08-31 02:23:00,60.0,54.0,-100.00,NNE,17,3.0,6.0,81,0.00,,,0.01,0.000000,,2013-08-31 09:23:00,
2013-08-31 02:33:00,60.0,54.0,-100.00,NNE,17,3.0,6.0,81,0.00,,,0.01,0.000000,,2013-08-31 09:33:00,
2013-08-31 02:44:00,60.0,54.0,-100.00,NNE,17,3.0,6.0,81,0.00,,,0.01,0.000000,,2013-08-31 09:44:00,
2013-08-31 02:53:00,60.0,54.0,-100.00,NNE,17,3.0,6.0,81,0.00,,,0.01,0.000000,,2013-08-31 09:53:00,
2013-08-31 03:00:00,61.0,56.0,-100.00,NNW,341,2.0,5.0,85,0.00,,,-99.99,0.000000,,2013-08-31 10:00:00,
2013-08-31 03:23:00,61.0,56.0,-100.00,NNW,341,2.0,5.0,85,0.00,,,-99.99,0.000000,,2013-08-31 10:23:00,
2013-08-31 03:33:00,61.0,56.0,-100.00,NNW,341,2.0,5.0,85,0.00,,,-99.99,0.000000,,2013-08-31 10:33:00,
2013-08-31 03:43:00,61.0,56.0,-100.00,NNW,341,2.0,5.0,85,0.00,,,-99.99,0.000000,,2013-08-31 10:43:00,
2013-08-31 03:53:00,61.0,56.0,-100.00,NNW,341,2.0,5.0,85,0.00,,,-99.99,0.000000,,2013-08-31 10:53:00,
2013-08-31 04:00:00,62.0,58.0,-100.00,NNW,340,3.0,6.0,86,0.00,,,0.01,0.000000,,2013-08-31 11:00:00,
2013-08-31 04:42:00,62.0,58.0,-100.00,NNW,340,3.0,6.0,86,0.00,,,0.01,0.000000,,2013-08-31 11:42:00,
2013-08-31 04:52:00,62.0,58.0,-100.00,NNW,340,3.0,6.0,86,0.00,,,0.01,0.000000,,2013-08-31 11:52:00,
2013-08-31 05:00:00,61.0,57.0,-100.00,NNW,342,3.0,6.0,86,0.00,,,-99.99,0.000000,,2013-08-31 12:00:00,
2013-08-31 05:42:00,61.0,57.0,-100.00,NNW,342,3.0,6.0,86,0.00,,,-99.99,0.000000,,2013-08-31 12:42:00,
2013-08-31 05:52:00,61.0,57.0,-100.00,NNW,342,3.0,6.0,86,0.00,,,-99.99,0.000000,,2013-08-31 12:52:00,
2013-08-31 06:00:00,60.0,57.0,-100.00,North,353,2.0,5.0,90,0.00,,,-99.99,0.000000,,2013-08-31 13:00:00,
2013-08-31 06:42:00,60.0,57.0,-100.00,North,353,2.0,5.0,90,0.00,,,-99.99,0.000000,,2013-08-31 13:42:00,
2013-08-31 06:52:00,60.0,57.0,-100.00,North,353,2.0,5.0,90,0.00,,,-99.99,0.000000,,2013-08-31 13:52:00,
2013-08-31 07:00:00,61.0,58.0,-100.00,NNW,339,2.0,5.0,90,0.00,,,0.01,1.000000,,2013-08-31 14:00:00,
2013-08-31 07:42:00,61.0,58.0,-100.00,NNW,339,2.0,5.0,90,0.00,,,0.01,1.000000,,2013-08-31 14:42:00,
2013-08-31 07:52:00,61.0,58.0,-100.00,NNW,339,2.0,5.0,90,0.00,,,0.01,1.000000,,2013-08-31 14:52:00,
2013-08-31 08:00:00,65.0,60.0,-100.00,NNW,348,2.0,8.0,84,0.00,,,0.01,41.000000,,2013-08-31 15:00:00,
2013-08-31 08:45:00,65.0,60.0,-100.00,NNW,348,2.0,8.0,84,0.00,,,0.01,41.000000,,2013-08-31 15:45:00,
2013-08-31 08:55:00,65.0,60.0,-100.00,NNW,348,2.0,8.0,84,0.00,,,0.01,41.000000,,2013-08-31 15:55:00,
2013-08-31 09:00:00,66.0,59.0,-100.00,North,358,5.0,10.0,77,0.00,,,0.01,185.000000,,2013-08-31 16:00:00,
2013-08-31 09:25:00,66.0,59.0,-100.00,North,358,5.0,10.0,77,0.00,,,0.01,185.000000,,2013-08-31 16:25:00,
2013-08-31 09:34:00,66.0,59.0,-100.00,North,358,5.0,10.0,77,0.00,,,0.01,185.000000,,2013-08-31 16:34:00,
2013-08-31 09:44:00,66.0,59.0,-100.00,North,358,5.0,10.0,77,0.00,,,0.01,185.000000,,2013-08-31 16:44:00,
2013-08-31 09:52:00,66.0,59.0,-100.00,North,358,5.0,10.0,77,0.00,,,0.01,185.000000,,2013-08-31 16:52:00,
2013-08-31 10:00:00,69.0,58.0,-100.00,NNW,335,3.0,11.0,68,0.00,,,0.01,338.000000,,2013-08-31 17:00:00,
2013-08-31 10:23:00,69.0,58.0,-100.00,NNW,335,3.0,11.0,68,0.00,,,0.01,338.000000,,2013-08-31 17:23:00,
2013-08-31 10:34:00,69.0,58.0,-100.00,NNW,335,3.0,11.0,68,0.00,,,0.01,338.000000,,2013-08-31 17:34:00,
2013-08-31 10:43:00,69.0,58.0,-100.00,NNW,335,3.0,11.0,68,0.00,,,0.01,338.000000,,2013-08-31 17:43:00,
2013-08-31 10:53:00,69.0,58.0,-100.00,NNW,335,3.0,11.0,68,0.00,,,0.01,338.000000,,2013-08-31 17:53:00,
2013-08-31 11:00:00,68.0,58.0,-100.00,West,270,2.0,7.0,70,0.00,,,0.01,567.000000,,2013-08-31 18:00:00,
2013-08-31 11:42:00,68.0,58.0,-100.00,West,270,2.0,7.0,70,0.00,,,0.01,567.000000,,2013-08-31 18:42:00,
2013-08-31 11:52:00,68.0,58.0,-100.00,West,270,2.0,7.0,70,0.00,,,0.01,567.000000,,2013-08-31 18:52:00,
2013-08-31 12:00:00,70.0,60.0,-100.00,SSE,162,2.0,8.0,70,0.00,,,0.01,387.000000,,2013-08-31 19:00:00,
2013-08-31 12:42:00,70.0,60.0,-100.00,SSE,162,2.0,8.0,70,0.00,,,0.01,387.000000,,2013-08-31 19:42:00,
2013-08-31 12:52:00,70.0,60.0,-100.00,SSE,162,2.0,8.0,70,0.00,,,0.01,387.000000,,2013-08-31 19:52:00,
2013-08-31 13:00:00,66.0,58.0,-100.00,West,274,3.0,11.0,76,0.00,,,0.01,303.000000,,2013-08-31 20:00:00,
2013-08-31 13:42:00,66.0,58.0,-100.00,West,274,3.0,11.0,76,0.00,,,0.01,303.000000,,2013-08-31 20:42:00,
2013-08-31 13:52:00,66.0,58.0,-100.00,West,274,3.0,11.0,76,0.00,,,0.01,303.000000,,2013-08-31 20:52:00,
2013-08-31 14:00:00,66.0,59.0,-100.00,NNW,334,3.0,7.0,77,0.00,,,0.01,173.000000,,2013-08-31 21:00:00,
2013-08-31 14:44:00,66.0,59.0,-100.00,NNW,334,3.0,7.0,77,0.00,,,0.01,173.000000,,2013-08-31 21:44:00,
2013-08-31 14:54:00,66.0,59.0,-100.00,NNW,334,3.0,7.0,77,0.00,,,0.01,173.000000,,2013-08-31 21:54:00,
2013-08-31 15:00:00,68.0,59.0,-100.00,WNW,293,3.0,6.0,72,0.00,,,0.01,275.000000,,2013-08-31 22:00:00,
2013-08-31 15:43:00,68.0,59.0,-100.00,WNW,293,3.0,6.0,72,0.00,,,0.01,275.000000,,2013-08-31 22:43:00,
2013-08-31 15:53:00,68.0,59.0,-100.00,WNW,293,3.0,6.0,72,0.00,,,0.01,275.000000,,2013-08-31 22:53:00,
2013-08-31 16:00:00,72.0,57.0,-100.00,West,269,1.0,5.0,59,0.00,,,0.01,328.000000,,2013-08-31 23:00:00,
2013-08-31 16:42:00,72.0,57.0,-100.00,West,269,1.0,5.0,59,0.00,,,0.01,328.000000,,2013-08-31 23:42:00,
2013-08-31 16:52:00,72.0,57.0,-100.00,West,269,1.0,5.0,59,0.00,,,0.01,328.000000,,2013-08-31 23:52:00,
2013-08-31 17:00:00,68.0,55.0,-100.00,SW,229,4.0,7.0,63,0.00,,,0.01,261.000000,,2013-09-01 00:00:00,
2013-08-31 17:22:00,68.0,55.0,-100.00,SW,229,4.0,7.0,63,0.00,,,0.01,261.000000,,2013-09-01 00:22:00,
2013-08-31 17:32:00,68.0,55.0,-100.00,SW,229,4.0,7.0,63,0.00,,,0.01,261.000000,,2013-09-01 00:32:00,
2013-08-31 17:42:00,68.0,55.0,-100.00,SW,229,4.0,7.0,63,0.00,,,0.01,261.000000,,2013-09-01 00:42:00,
2013-08-31 17:52:00,68.0,55.0,-100.00,SW,229,4.0,7.0,63,0.00,,,0.01,261.000000,,2013-09-01 00:52:00,
2013-08-31 18:00:00,66.0,58.0,-100.00,NW,326,4.0,8.0,75,0.00,,,0.01,129.000000,,2013-09-01 01:00:00,
2013-08-31 18:22:00,66.0,58.0,-100.00,NW,326,4.0,8.0,75,0.00,,,0.01,129.000000,,2013-09-01 01:22:00,
2013-08-31 18:32:00,66.0,58.0,-100.00,NW,326,4.0,8.0,75,0.00,,,0.01,129.000000,,2013-09-01 01:32:00,
2013-08-31 18:42:00,66.0,58.0,-100.00,NW,326,4.0,8.0,75,0.00,,,0.01,129.000000,,2013-09-01 01:42:00,
2013-08-31 18:52:00,66.0,58.0,-100.00,NW,326,4.0,8.0,75,0.00,,,0.01,129.000000,,2013-09-01 01:52:00,
2013-08-31 19:00:00,62.0,56.0,-100.00,NNW,338,5.0,10.0,82,0.00,,,0.01,31.000000,,2013-09-01 02:00:00,
2013-08-31 19:23:00,62.0,56.0,-100.00,NNW,338,5.0,10.0,82,0.00,,,0.01,31.000000,,2013-09-01 02:23:00,
2013-08-31 19:32:00,62.0,56.0,-100.00,NNW,338,5.0,10.0,82,0.00,,,0.01,31.000000,,2013-09-01 02:32:00,
2013-08-31 19:43:00,62.0,56.0,-100.00,NNW,338,5.0,10.0,82,0.00,,,0.01,31.000000,,2013-09-01 02:43:00,
2013-08-31 19:53:00,62.0,56.0,-100.00,NNW,338,5.0,10.0,82,0.00,,,0.01,31.000000,,2013-09-01 02:53:00,
2013-08-31 20:00:00,-999.0,-99.9,-100.00,North,356,4.0,10.0,-999,-99.99,,,-99.99,0.000000,,2013-09-01 03:00:00,
2013-08-31 20:23:00,61.0,55.0,-100.00,North,356,4.0,10.0,82,0.00,,,0.01,0.000000,,2013-09-01 03:23:00,
2013-08-31 20:35:00,61.0,55.0,-100.00,North,356,4.0,10.0,82,0.00,,,0.01,0.000000,,2013-09-01 03:35:00,
2013-08-31 20:44:00,61.0,55.0,-100.00,North,356,4.0,10.0,82,0.00,,,0.01,0.000000,,2013-09-01 03:44:00,
2013-08-31 20:54:00,61.0,55.0,-100.00,North,356,4.0,10.0,82,0.00,,,0.01,0.000000,,2013-09-01 03:54:00,
2013-08-31 21:00:00,61.0,56.0,-100.00,NNW,333,4.0,7.0,84,0.00,,,0.01,0.000000,,2013-09-01 04:00:00,
2013-08-31 21:25:00,61.0,56.0,-100.00,NNW,333,4.0,7.0,84,0.00,,,0.01,0.000000,,2013-09-01 04:25:00,
2013-08-31 21:34:00,61.0,56.0,-100.00,NNW,333,4.0,7.0,84,0.00,,,0.01,0.000000,,2013-09-01 04:34:00,
2013-08-31 21:43:00,61.0,56.0,-100.00,NNW,333,4.0,7.0,84,0.00,,,0.01,0.000000,,2013-09-01 04:43:00,
2013-08-31 21:54:00,61.0,56.0,-100.00,NNW,333,4.0,7.0,84,0.00,,,0.01,0.000000,,2013-09-01 04:54:00,
2013-08-31 22:00:00,61.0,56.0,-100.00,NNW,342,3.0,7.0,83,0.00,,,0.01,0.000000,,2013-09-01 05:00:00,
2013-08-31 22:23:00,61.0,56.0,-100.00,NNW,342,3.0,7.0,83,0.00,,,0.01,0.000000,,2013-09-01 05:23:00,
2013-08-31 22:34:00,61.0,56.0,-100.00,NNW,342,3.0,7.0,83,0.00,,,0.01,0.000000,,2013-09-01 05:34:00,
2013-08-31 22:43:00,61.0,56.0,-100.00,NNW,342,3.0,7.0,83,0.00,,,0.01,0.000000,,2013-09-01 05:43:00,
2013-08-31 22:52:00,61.0,56.0,-100.00,NNW,342,3.0,7.0,83,0.00,,,0.01,0.000000,,2013-09-01 05:52:00,
2013-08-31 23:00:00,61.0,56.0,-100.00,NNW,337,2.0,7.0,85,0.00,,,0.00,0.000000,,2013-09-01 06:00:00,
2013-08-31 23:42:00,61.0,56.0,-100.00,NNW,337,2.0,7.0,85,0.00,,,0.00,0.000000,,2013-09-01 06:42:00,
2013-08-31 23:52:00,61.0,56.0,-100.00,NNW,337,2.0,7.0,85,0.00,,,0.00,0.000000,,2013-09-01 06:52:00,